This demonstration page uses our WeatherBlox Daily Observations layout. Learn more.

Left ArrowRight Arrow

40.92945, -100.16068

Hourly Observations for July 15, 2020

Temp ( °F °C ) Dew Point ( °F °C ) Humidity (%) Winds ( mph kmh ) Pressure ( in mb ) Visibility ( mi km ) Precip ( " mm )
12:15 am 00:15 Cloudy 66 18.7 62 16.4 87 87 ENE 6 9 29.98 1015 10 16.0934 0 0
12:35 am 00:35 Cloudy 66 19 61 16 83 83 ENE 6 9 29.99 1016 10 16.0934 0 0
12:55 am 00:55 Cloudy 66 19 60 15.7 81 81 ENE 8 13 29.97 1015 10 16.0934 0 0
1:15 am 01:15 Cloudy 66 19 60 15.5 80 80 NE 8 13 29.96 1015 10 16.0934 0 0
1:35 am 01:35 Cloudy 66 18.8 60 15.5 81 81 NNE 9 15 29.96 1015 10 16.0934 0 0
1:55 am 01:55 Cloudy 65 18.6 60 15.5 82 82 NE 8 13 29.94 1014 10 16.0934 0 0
2:15 am 02:15 Cloudy 65 18.6 60 15.4 82 82 NE 10 17 29.95 1014 10 16.0934 0 0
2:35 am 02:35 Cloudy 66 18.7 59 15.2 80 80 ENE 8 13 29.97 1015 10 16.0934 0 0
2:55 am 02:55 Cloudy 65 18.6 59 15.1 80 80 NE 9 15 29.98 1015 10 16.0934 0 0
3:15 am 03:15 Cloudy 65 18.5 59 15.1 81 81 ENE 12 19 29.96 1015 10 16.0934 0 0
3:35 am 03:35 Mostly Cloudy 65 18.3 59 15 81 81 ENE 7 11 29.95 1014 10 16.0934 0 0
3:55 am 03:55 Clear 64 17.7 59 15 84 84 ENE 12 19 29.92 1013 10 16.0934 0 0
4:15 am 04:15 Clear 64 17.5 59 14.9 85 85 ENE 12 19 29.89 1012 10 16.0934 0 0
4:35 am 04:35 Clear 63 17.3 59 14.8 85 85 ENE 8 13 29.92 1013 10 16.0934 0 0
4:55 am 04:55 Clear 63 17.1 59 15 88 88 E 8 13 29.93 1013 10 16.0934 0 0
5:15 am 05:15 Partly Cloudy 62 16.8 59 14.8 88 88 NE 3 6 29.96 1015 10 16.0934 0 0
5:35 am 05:35 Mostly Cloudy 62 16.6 59 15 90 90 N 6 9 29.98 1015 10 16.0934 0 0
5:55 am 05:55 Cloudy 62 16.8 59 15 89 89 NNE 7 11 29.98 1015 10 16.0934 0 0
6:15 am 06:15 Mostly Cloudy 62 16.8 59 15 89 89 Calm 29.97 1015 10 16.0934 0 0
6:35 am 06:35 Mostly Cloudy 63 17 58 14.6 86 86 Calm 29.97 1015 10 16.0934 0 0
6:55 am 06:55 Mostly Cloudy 62 16.8 59 15 89 89 NE 5 7 29.99 1016 10 16.0934 0 0
7:15 am 07:15 Sunny 62 16.6 59 15.2 92 92 Calm 29.99 1016 10 16.0934 0 0
7:35 am 07:35 Partly Cloudy 62 16.7 60 15.5 93 93 NNW 3 6 30 1016 10 16.0934 0 0
7:55 am 07:55 Partly Cloudy 63 17.1 60 15.3 89 89 NNE 6 9 30 1016 10 16.0934 0 0
8:15 am 08:15 Sunny 64 17.5 59 15.1 86 86 N 10 17 30.02 1017 10 16.0934 0 0
8:35 am 08:35 Partly Cloudy 65 18.4 59 14.8 80 80 N 12 19 30.03 1017 10 16.0934 0 0
8:55 am 08:55 Partly Cloudy 67 19.5 58 14.2 72 72 NNE 16 26 30.01 1016 10 16.0934 0 0
9:15 am 09:15 Partly Cloudy 67 19.6 56 13.4 68 68 NNE 15 24 30.02 1016 10 16.0934 0 0
9:35 am 09:35 Cloudy 67 19.2 57 13.8 71 71 NNE 10 17 30.05 1018 10 16.0934 0 0
9:55 am 09:55 Cloudy 67 19.3 58 14.4 73 73 N 10 17 30.06 1018 10 16.0934 0 0
10:15 am 10:15 Cloudy 66 19 58 14.6 76 76 N 14 22 30.1 1019 10 16.0934 0 0
10:35 am 10:35 Cloudy 66 18.9 59 15 78 78 N 12 19 30.08 1019 10 16.0934 0 0
10:55 am 10:55 Cloudy 66 19 59 15.1 78 78 NNE 9 15 30.07 1018 10 16.0934 0 0
11:15 am 11:15 Cloudy with Drizzle 66 18.7 60 15.7 83 83 NNE 9 15 30.06 1018 10 16.0934 0 0
11:35 am 11:35 Mostly Cloudy 68 20.1 61 15.9 77 77 NNE 10 17 30.04 1017 10 16.0934 0 0
11:55 am 11:55 Mostly Cloudy 71 21.6 60 15.6 69 69 NE 10 17 30.03 1017 10 16.0934 0 0
12:15 pm 12:15 Partly Cloudy 73 22.6 56 13.6 57 57 NE 12 19 30 1016 10 16.0934 0 0
12:35 pm 12:35 Sunny 73 23 56 13.3 54 54 NNE 9 15 30 1016 10 16.0934 0 0
12:55 pm 12:55 Sunny 74 23.4 55 12.6 51 51 NNE 3 6 29.99 1016 10 16.0934 0 0
1:15 pm 13:15 Sunny 76 24.2 53 11.8 46 46 ENE 7 11 29.99 1015 10 16.0934 0 0
1:35 pm 13:35 Partly Cloudy 76 24.6 51 10.3 41 41 ENE 8 13 29.98 1015 10 16.0934 0 0
1:55 pm 13:55 Partly Cloudy 77 25 53 11.9 44 44 E 5 7 29.97 1015 10 16.0934 0 0
2:15 pm 14:15 Partly Cloudy 76 24.3 55 12.6 48 48 NNE 7 11 29.97 1015 10 16.0934 0 0
2:35 pm 14:35 Sunny 77 25.1 53 11.7 43 43 N 5 7 29.96 1015 10 16.0934 0 0
2:55 pm 14:55 Hazy 78 25.5 53 11.7 42 42 E 5 7 29.95 1014 5 8.0467 0 0
3:15 pm 15:15 Sunny 78 25.5 53 11.7 42 42 Calm 29.95 1014 7 11.26538 0 0
3:35 pm 15:35 Sunny 78 25.8 54 12.2 43 43 ENE 3 6 29.94 1014 10 16.0934 0 0
3:55 pm 15:55 Sunny 79 26.2 54 12.1 42 42 Calm 29.93 1014 10 16.0934 0 0
4:15 pm 16:15 Sunny 80 26.7 55 12.6 42 42 Calm 29.93 1013 10 16.0934 0 0
4:35 pm 16:35 Sunny 80 26.8 54 12.4 41 41 ENE 5 7 29.91 1013 10 16.0934 0 0
4:55 pm 16:55 Sunny 80 26.8 55 12.9 42 42 N 3 6 29.91 1013 10 16.0934 0 0
5:15 pm 17:15 Sunny 80 26.8 55 12.6 41 41 Calm 29.9 1013 10 16.0934 0 0
5:35 pm 17:35 Sunny 81 27.3 54 12.3 39 39 N 5 7 29.89 1012 10 16.0934 0 0
5:55 pm 17:55 Sunny 81 27.4 55 12.8 41 41 SSE 3 6 29.89 1012 10 16.0934 0 0
6:15 pm 18:15 Sunny 81 27 58 14.2 45 45 SW 5 7 29.89 1012 7 11.26538 0 0
6:35 pm 18:35 Sunny 81 27.3 58 14.7 46 46 Calm 29.89 1012 7 11.26538 0 0
6:55 pm 18:55 Sunny 81 27 57 13.9 45 45 Calm 29.89 1012 10 16.0934 0 0
7:15 pm 19:15 Sunny 82 27.5 58 14.3 44 44 SSW 3 6 29.89 1012 10 16.0934 0 0
7:35 pm 19:35 Sunny 80 26.6 60 15.3 50 50 S 5 7 29.9 1012 10 16.0934 0 0
7:55 pm 19:55 Sunny 79 25.9 62 16.6 57 57 SSW 3 6 29.9 1013 10 16.0934 0 0
8:15 pm 20:15 Sunny 79 26 60 15.3 52 52 S 3 6 29.9 1013 10 16.0934 0 0
8:35 pm 20:35 Sunny 76 24.6 63 17 63 63 Calm 29.91 1013 10 16.0934 0 0
8:55 pm 20:55 Sunny 74 23.3 63 17.3 69 69 Calm 29.93 1014 10 16.0934 0 0
9:15 pm 21:15 Clear 72 22.1 64 17.6 76 76 SSW 6 9 29.95 1014 10 16.0934 0 0
9:35 pm 21:35 Clear 70 21.1 64 17.7 81 81 S 6 9 29.97 1015 10 16.0934 0 0
9:55 pm 21:55 Clear 69 20.7 64 17.6 83 83 SSW 3 6 29.99 1015 10 16.0934 0 0
10:15 pm 22:15 Clear 69 20.5 64 17.5 83 83 Calm 29.99 1015 10 16.0934 0 0
10:35 pm 22:35 Clear 69 20.5 64 17.5 83 83 Calm 30 1016 10 16.0934 0 0
10:55 pm 22:55 Clear 68 19.8 63 17.4 86 86 Calm 30 1016 10 16.0934 0 0
11:15 pm 23:15 Clear 66 19 63 17 88 88 Calm 30.01 1016 10 16.0934 0 0
11:35 pm 23:35 Clear 66 18.8 63 17.1 90 90 Calm 29.99 1016 10 16.0934 0 0
11:55 pm 23:55 Clear 65 18.3 62 16.8 91 91 ENE 6 9 29.99 1015 10 16.0934 0 0

Powered by AerisWeather